497  
ASUS41 KRLX 021210  
RWRRLX  
REGIONAL WEATHER ROUNDUP  
NATIONAL WEATHER SERVICE CHARLESTON WV  
700 AM EST FRI DEC 02 2022  
 
NOTE: "FAIR" INDICATES FEW OR NO CLOUDS BELOW 12,000 FEET WITH NO  
SIGNIFICANT WEATHER AND/OR S TO VISIBILITY
.  
 
WVZ003-021300-  
NORTHERN PANHANDLE OF WEST VIRGINIA  
 
CITY SKY/WX TMP DP RH WIND PRES REMARKS
 
WHEELING PTCLDY 29 17 61 SE8 30.34F  

 
 
WVZ009-021300-  
NORTHWEST WEST VIRGINIA  
 
CITY SKY/WX TMP DP RH WIND PRES REMARKS
 
PARKERSBURG CLOUDY 25 23 92 CALM 30.37S  

 
 
WVZ006-021300-  
WESTERN WEST VIRGINIA  
 
CITY SKY/WX TMP DP RH WIND PRES REMARKS
 
HUNTINGTON PTCLDY 25 18 74 E5 30.36S  
POINT PLEASANT CLEAR 27 23 86 CALM 30.41R  

 
 
WVZ015-021300-  
WEST CENTRAL WEST VIRGINIA  
 
CITY SKY/WX TMP DP RH WIND PRES REMARKS
 
CHARLESTON PTCLDY 23 21 92 SE3 30.38R  

 
 
WVZ509-031-039-021300-  
NORTH CENTRAL WEST VIRGINIA  
 
CITY SKY/WX TMP DP RH WIND PRES REMARKS
 
MORGANTOWN PTCLDY 26 20 77 SW3 30.38S  
CLARKSBURG PTCLDY 27 19 72 CALM 30.38S  
BUCKHANNON PTCLDY 23 18 80 CALM 30.37R  

 
 
WVZ515-516-025-034-042-507-021300-  
SOUTHERN WEST VIRGINIA  
 
CITY SKY/WX TMP DP RH WIND PRES REMARKS
 
BECKLEY PTCLDY 34 13 41 SE8 30.38S  
LOGAN FAIR 39 14 35 S7 30.36F  
PINEVILLE NOT AVBL  
BLUEFIELD CLEAR 30 12 47 E3 30.39S  
LEWISBURG CLEAR 22 18 83 CALM 30.43S  

 
 
WVZ525-526-021300-  
NORTHERN MOUNTAINS OF WEST VIRGINIA  
 
CITY SKY/WX TMP DP RH WIND PRES REMARKS
 
ELKINS CLEAR 19 15 84 CALM 30.41R  

 
 
WVZ502-504-052-021300-  
EASTERN PANHANDLE OF WEST VIRGINIA  
 
CITY SKY/WX TMP DP RH WIND PRES REMARKS
 
PETERSBURG CLOUDY 23 19 86 CALM 30.49R  
CUMBERLAND CLOUDY 22 20 91 CALM 30.53S  
MARTINSBURG MOCLDY 22 17 81 CALM 30.51R  

 
 
OHZ075-083-KYZ101-021300-  
SOUTHEAST OHIO/NORTHEAST KENTUCKY  
 
CITY SKY/WX TMP DP RH WIND PRES REMARKS
 
ATHENS CLOUDY 24 24 100 CALM 30.36F  
JACKSON NOT AVBL  
ASHLAND CLOUDY 27 27 100 CALM 30.39S  

 
 
 
CLICK HERE TO GO TO PREVIOUS BULLETINS.

The Nexlab WV Page
The Nexlab OH Page
The Nexlab KY Page
The Nexlab VA Page Main Text Page